AirNav   Air Wisconsin pilot careers
 
 1382 users online  

9N1 Vansant Airport
Erwinna, Pennsylvania, USA

GOING TO ERWINNA?


FAA INFORMATION EFFECTIVE 28 FEBRUARY 2019

Location

FAA Identifier: 9N1
Lat/Long: 40-29-03.3710N / 075-05-58.6180W
40-29.056183N / 075-05.976967W
40.4842697 / -75.0996161
(estimated)
Elevation: 390 ft. / 119 m (estimated)
Variation: 12W (1985)
From city: 2 miles SW of ERWINNA, PA
Time zone: UTC -5 (UTC -4 during Daylight Saving Time)
Zip code: 18920

Airport Operations

Airport use: Open to the public
Activation date: 10/1961
Control tower: no
ARTCC: NEW YORK CENTER
FSS: WILLIAMSPORT FLIGHT SERVICE STATION
NOTAMs facility: IPT (NOTAM-D service available)
Attendance: 0830-DARK
Pattern altitude: GLIDER TFC PAT 800 FT AGL; POWER PLANE 1000 FT AGL. POWER PLANE TFC REMAIN OUTSIDE GLIDER TFC PAT & AVOID FLYING DIRECTLY OVER ARPT.
Wind indicator: yes
Segmented circle: no

Airport Communications

CTAF/UNICOM: 122.8
WX ASOS at DYL (9 nm S): 118.875 (215-345-0392)
WX AWOS-3 at CKZ (10 nm SW): 126.325 (215-257-7291)
WX AWOS-3 at UKT (13 nm W): 119.475 (215-538-7610)
WX ASOS at TTN (18 nm SE): 126.775 (609-538-8690)
WX AWOS-3 at XLL (18 nm W): 127.875 (610-231-3111)
WX ASOS at ABE (19 nm NW): PHONE 610-266-3579

Nearby radio navigation aids

VOR radial/distance  VOR name  Freq  Var
ARDr338/16.4YARDLEY VOR/DME108.2010W
SBJr260/17.4SOLBERG VOR/DME112.9010W
FJCr142/21.8ALLENTOWN VORTAC117.5010W
BWZr225/22.7BROADWAY VOR/DME114.2011W
PTWr062/26.3POTTSTOWN VORTAC116.5009W
ETXr111/27.3EAST TEXAS VOR/DME110.2009W
RBVr311/32.4ROBBINSVILLE VORTAC113.8010W
STWr210/32.4STILLWATER VOR/DME109.6011W
GXUr333/36.6MC GUIRE VORTAC110.6012W

 
NDB name  Hdg/Dist  Freq  Var  ID
AMBLER034/23.127512WING .. -. --.
CHATHAM256/34.225413WCAT -.-. .- -

Airport Services

Fuel available: 100LL
Parking: hangars and tiedowns
Airframe service: MAJOR
Powerplant service: MAJOR
Bottled oxygen: NONE
Bulk oxygen: NONE

Runway Information

Runway 7/25

Dimensions: 3058 x 120 ft. / 932 x 37 m
Surface: turf, in good condition
Runway edge markings: RY07/25 MKD WITH WHITE TIRES; DSPLCD THLD MKD WITH WHITE TIRES.
RUNWAY 7  RUNWAY 25
Traffic pattern: leftleft
Displaced threshold: 365 ft.no
Obstructions: 15 ft. road, 54 ft. from runway, 3:1 slope to clear
RWY 07 APCH RATIO 27:1 TO DSPLCD THLD.
37 ft. tree, 668 ft. from runway, 11 ft. right of centerline, 18:1 slope to clear

Runway 5G/23G

Dimensions: 1340 x 200 ft. / 408 x 61 m
Surface: turf, in good condition
RUNWAY 5G  RUNWAY 23G
Traffic pattern: leftleft

Airport Ownership and Management from official FAA records

Ownership: Publicly-owned
Owner: BUCKS COUNTY AIRPORT AUTHORITY
P.O. BOX 1185, 3879 OLD EASTON ROAD
DOYLESTOWN, PA 18901
Phone 215-345-1970
Manager: GEORGE TAYLOR
516 CAFFERTY RD PO BOX 176
ERWINNA, PA 18920
Phone 610-847-8494

Airport Operational Statistics

Aircraft based on the field: 52
Single engine airplanes: 40
Gliders airplanes: 12
    
Aircraft operations: avg 87/week *
89% local general aviation
11% transient general aviation
<1% military
* for 12-month period ending 01 May 2018

Additional Remarks

HEAVY GLIDER TFC.
ARPT CLSD TO TRANSIENT TRAFFIC DEC THRU APR.
GLIDERS OCNLLY USE POWER PLANE RWY FOR LNDG TO THE WEST.
RWY 23 GLIDERS ONLY.
RWY 05 LANDINGS AND TAKEOFFS PROHIBITED.
DEER ON AND INVOF ARPT.
ARPT CLSD DUSK TO DAWN.
FOR CD CTC ABE APCH AT 800-728-6322.

Instrument Procedures

There are no published instrument procedures at 9N1.

Some nearby airports with instrument procedures:

N85 - Alexandria Airport (7 nm NE)
N40 - Sky Manor Airport (7 nm NE)
KDYL - Doylestown Airport (9 nm S)
KCKZ - Pennridge Airport (10 nm SW)
KUKT - Quakertown Airport (13 nm W)
N43 - Braden Airpark (17 nm NW)
N51 - Solberg-Hunterdon Airport (18 nm E)
KTTN - Trenton Mercer Airport (18 nm SE)
KXLL - Allentown Queen City Municipal Airport (18 nm W)
KABE - Lehigh Valley International Airport (19 nm NW)
 
Loc | Ops | Rwys | IFR | FBO | Links
Com | Nav | Svcs | Stats | Notes
Area around 9N1 (Vansant Airport)
 
Road maps at: MapQuest Bing Google
 
Aerial photo
WARNING: Photo may not be current or correct
Aerial photo of 9N1 (Vansant Airport)
Photo by David Newcomer
Photo taken 04-Jul-2017
looking west from 2,500' altitude.

Do you have a better or more recent aerial photo of Vansant Airport that you would like to share? If so, please send us your photo.

 
Sectional chart

 
Airport distance calculator
Flying to Vansant Airport? Find the distance to fly.

From to 9N1

Sunrise and sunset
Times for 21-Mar-2019
 Local
(UTC-4)
 Zulu
(UTC)
Morning civil twilight06:3610:36
Sunrise07:0311:03
Sunset19:1223:12
Evening civil twilight19:3923:39

Current date and time
Zulu (UTC)  21-Mar-2019 17:05:46
Local (UTC-4)  21-Mar-2019 13:05:46
 
METAR
KDYL 
9nm S 
211654Z AUTO VRB06KT 7SM -RA BKN006 OVC012 08/07 A2994 RMK AO2 CIG 005V010 SLP142 P0005 T00780067
KCKZ 
10nm SW 
211655Z AUTO 07006G17KT 4SM -RA BKN005 OVC015 07/07 A2995 RMK AO2 P0004
KUKT 
13nm W 
211655Z AUTO 07013KT 3SM BR BKN007 OVC012 07/08 A2994 RMK A01 P0006
KTTN 
18nm SE 
ASOS 133.70 609-538-8690
211653Z 08009KT 5SM -RA BR BKN007 OVC011 08/07 A2996 RMK AO2 CIG 005V009 SLP140 P0005 T00780072
KXLL 
18nm W 
211655Z AUTO 08011G16KT 7SM -RA OVC010 08/07 A2995 RMK AO2 P0002
KABE 
19nm NW 
211651Z 07012KT 6SM -RA BKN009 OVC014 08/06 A2995 RMK AO2 CIG 006V011 SLP144 P0007 T00830056
TAF
KTTN 
18nm SE 
211420Z 2114/2212 07009KT 5SM -RA BR OVC025 TEMPO 2114/2117 2SM RA BR BKN015 FM211700 08010KT 3SM -RA BR OVC012 TEMPO 2117/2121 1SM RA BR OVC008 FM212100 09012G20KT 2SM RA BR OVC008 FM220400 06008KT 2SM RA BR OVC005 FM220600 03006KT 2SM BR OVC005 FM221000 33008KT P6SM OVC008
KABE 
19nm NW 
211538Z 2116/2212 07009KT 3SM RA BR OVC015 TEMPO 2116/2118 BKN008 FM211800 06009KT 3SM -RA BR OVC008 TEMPO 2118/2122 1SM RA BR OVC005 FM220000 06010G18KT 2SM RA BR OVC008 FM220500 02007KT 2SM -SHRA BR OVC005 FM220900 32008KT 2SM BR OVC008 FM221100 31010G20KT P6SM BKN025
NOTAMs
Click for the latest NOTAMs
NOTAMs are issued by the DoD/FAA and will open in a separate window not controlled by AirNav.

 

 
 

FBO, Fuel Providers, and Aircraft Ground Support

  
 Business Name 
 
 Contact 
 
 Services / Description 
 
Fuel Prices
 
Comments
  
The Bird of Paradise at Van Sant 610-847-1119
251-609-2043
[web site]
[email]
Airport management, Aviation fuel, Aircraft ground handling, Aircraft parking (ramp or tiedown), Passenger terminal and lounge, Flight training, ...

More info about The Bird of Paradise at Van Sant
Ascent
100LL
SS $5.50 
 Updated 20-Mar-2019
 
   1 read write
SS=Self service
Update Fuel Prices
 

Would you like to see your business listed on this page?

 If your business provides an interesting product or service to pilots, flight crews, aircraft, or users of the Vansant Airport, you should consider listing it here.  To start the listing process, click on the button below
 
Add a business
 

Other Pages about Vansant Airport

vansantairport.com
 
Update a link
 
Copyright © AirNav, LLC. All rights reserved. Privacy Policy  Contact